Temp
27 26 26 26 25 25 25 25 25 24 25 23 25 25 25 25 25 25 25 25 25 25 26 26 26 26 26 27 27 27 28 28 27 28 28 28 28 28 28 28 28 28 29
27 27 26 26 26 26 26 25 25 24 24 24 24 25 25 25 25 25 25 25 25 26 25 26 26 26 26 26 25 26 27 27 27 26 27 27 28 29 29 29 28 28 29
26 26 26 26 27 27 26 26 25 25 24 25 24 24 24 24 24 24 24 25 25 25 25 26 26 26 26 25 25 25 26 25 26 26 27 27 28 28 27 28 29 29 29
26 26 26 24 26 25 26 26 26 25 25 24 24 24 24 25 24 24 24 24 25 25 25 26 26 26 26 25 25 25 25 25 25 25 26 27 28 26 26 27 27 26 26
24 23 24 24 24 25 24 26 26 25 25 24 24 25 25 25 24 24 23 24 25 25 26 26 25 25 25 25 24 24 24 24 24 24 24 25 25 25 24 24 24 24 25
22 22 23 24 23 23 22 23 24 24 24 24 24 24 23 23 22 22 23 23 23 22 25 25 24 24 24 24 23 23 23 23 23 23 23 23 23 22 23 22 23 22 23
21 21 20 20 20 20 21 21 20 22 23 22 21 21 21 20 21 22 24 24 24 23 24 24 23 22 22 22 22 23 23 23 23 22 22 22 21 22 21 21 21 22 22
21 20 19 18 18 18 18 18 19 20 20 19 18 19 19 19 20 22 22 22 21 21 20 20 20 20 20 22 22 21 22 22 22 22 22 22 22 22 22 21 21 22 22
19 19 18 18 18 18 18 18 18 18 18 18 18 18 18 18 19 20 22 21 20 20 20 20 19 19 20 20 20 20 21 21 22 22 23 23 23 22 22 21 21 21 21
16 17 18 18 18 18 18 18 17 17 17 18 17 17 17 18 19 20 21 21 20 19 20 19 19 19 18 19 19 18 19 20 21 23 24 22 23 23 22 21 21 20 21
15 16 16 17 17 18 17 17 16 16 16 15 15 15 16 16 17 18 19 20 19 18 18 17 18 19 19 18 18 18 19 20 21 22 23 23 22 22 21 21 21 21 20
15 16 16 17 17 16 16 16 15 16 15 15 15 15 15 15 16 17 17 17 18 19 18 18 18 18 19 18 18 18 19 19 19 20 20 19 19 19 20 20 20 20 20
15 15 15 16 16 16 16 15 15 16 17 17 17 17 16 15 14 15 16 17 16 17 17 17 18 17 18 18 18 18 18 18 17 18 18 18 19 19 19 18 18 18 19
14 15 15 15 15 16 15 16 16 16 17 19 19 18 17 15 14 16 15 14 14 15 16 16 16 17 16 16 16 15 15 15 14 15 15 15 16 16 16 16 16 16 17
14 14 15 15 15 14 14 13 13 13 15 16 16 16 16 14 14 13 14 14 14 15 16 16 16 16 15 15 14 14 13 13 13 13 12 13 13 13 13 14 14 14 15
14 15 15 15 15 14 12 11 11 12 13 14 14 15 14 14 14 13 13 13 14 15 15 15 14 14 14 14 14 13 13 12 12 11 11 11 11 11 11 11 12 12 12
16 17 18 17 16 15 13 12 10 10 12 13 13 13 13 13 13 13 13 14 14 15 15 15 14 14 13 13 13 12 12 11 11 10 11 11 11 10 10 11 10 9 10
16 17 17 18 18 16 15 15 13 12 11 10 11 11 12 13 12 13 13 14 15 15 14 14 13 13 12 11 11 11 10 10 10 10 10 10 9 9 9 8 8 8 8
15 16 17 17 17 17 17 17 16 16 14 11 11 10 11 11 12 12 13 14 14 14 13 12 12 11 10 10 9 9 9 9 9 9 8 8 8 7 7 7 7 7 7
14 15 16 16 16 16 16 17 17 17 16 15 14 13 12 12 12 13 13 13 13 13 12 12 10 10 9 9 8 8 9 9 8 7 7 6 6 5 5 5 5 5 6
14 14 14 15 15 15 16 16 16 16 16 16 15 14 13 13 14 14 14 12 12 12 11 10 9 9 9 8 7 8 8 7 7 6 5 5 4 4 4 4 4 5 5
15 14 13 14 14 14 15 15 15 16 16 16 13 13 13 13 14 13 13 12 12 10 10 9 9 8 8 7 7 6 6 6 5 4 3 3 2 2 2 2 2 3 3
15 15 14 14 15 15 15 14 15 15 15 16 14 14 13 12 13 13 13 12 12 11 10 10 9 9 9 8 7 6 6 5 4 3 2 2 1 1 1 0 1 1 1
15 15 15 14 14 15 15 14 14 15 15 15 15 13 13 13 14 13 13 12 12 11 11 10 10 9 8 8 7 7 7 6 4 3 2 1 0 0 0 0 1 1 1
15 15 15 15 15 14 14 14 14 14 15 15 14 15 14 14 13 13 12 12 12 11 11 10 10 10 9 8 7 6 6 5 4 3 2 0 0 1 1 1 0 0 0
13 13 13 14 14 15 14 14 14 14 14 15 14 14 14 14 14 14 13 13 12 11 11 11 10 10 9 8 7 6 6 5 4 3 2 2 0 1 1 1 1 1 1
Height
826 829 833 837 840 843 846 848 853 856 858 860 860 861 858 856 857 859 860 861 863 864 864 865 867 868 868 868 866 866 865 863 863 861 859 858 856 855 852 850 846 843 841
822 826 830 833 836 840 843 847 850 853 857 858 858 857 856 856 858 858 858 860 860 861 862 863 864 865 867 868 869 868 866 865 865 864 862 859 855 852 850 848 846 843 841
818 826 827 832 833 837 840 843 846 847 849 852 853 853 854 854 856 856 855 855 855 856 856 858 860 861 862 863 863 863 863 863 863 862 860 858 854 853 849 848 845 843 841
815 821 826 832 832 837 839 841 843 844 846 850 851 851 852 851 853 853 855 858 858 854 853 855 858 860 861 862 864 864 865 864 863 862 860 858 854 852 850 848 845 844 842
819 824 826 829 831 833 839 840 841 843 844 847 850 850 851 850 849 853 857 859 863 866 860 857 856 859 862 863 864 864 864 864 863 862 859 855 853 851 852 851 849 846 843
818 823 827 829 831 834 836 839 840 841 844 846 848 850 848 848 847 852 859 860 865 843 857 861 854 858 860 861 862 863 865 864 863 863 861 859 857 856 853 852 850 847 843
821 823 827 827 829 831 833 836 830 839 843 844 845 846 847 848 847 846 849 853 857 858 858 856 852 855 859 862 862 863 863 863 863 862 860 859 858 856 854 851 850 848 846
819 823 827 830 832 833 833 835 836 838 842 844 845 847 849 849 849 847 848 847 849 851 853 854 855 859 860 861 862 862 861 861 861 861 860 858 856 854 853 852 850 847 844
820 824 829 831 833 834 835 834 837 842 842 847 849 851 851 852 852 851 851 852 852 856 858 859 861 862 863 864 863 863 862 861 860 859 857 856 854 854 851 850 849 846 843
822 827 829 831 835 837 837 840 841 843 845 848 852 852 854 853 855 855 853 856 858 860 861 863 864 865 866 866 865 865 864 861 859 856 855 856 854 854 853 852 850 848 846
826 828 832 833 836 839 839 841 843 844 848 850 854 856 857 856 858 859 858 857 859 861 865 866 866 867 867 867 867 866 864 863 860 858 857 856 854 854 854 853 852 850 847
828 831 834 835 838 840 841 843 845 847 850 854 857 858 859 859 861 862 861 862 862 861 863 865 866 867 865 867 867 866 865 863 861 858 856 857 856 856 855 854 853 850 849
831 834 837 838 841 844 844 845 850 849 851 854 857 860 862 862 861 863 863 864 867 865 864 866 865 868 867 867 869 866 863 863 862 861 862 861 860 858 856 854 852 849 848
835 838 838 840 844 846 846 847 850 851 851 853 855 857 862 864 863 861 863 868 868 867 866 865 869 871 869 869 868 866 867 865 865 865 865 864 861 859 857 855 852 851 848
838 839 841 845 847 848 848 849 851 852 852 854 856 858 861 864 865 864 865 865 865 865 866 868 871 872 872 872 871 871 870 869 869 868 867 865 863 861 859 858 857 852 850
838 839 843 847 851 852 853 855 856 856 856 858 858 861 862 865 864 865 866 866 866 866 868 870 873 874 874 875 875 874 873 873 873 872 869 868 867 864 862 859 857 857 853
838 840 844 847 850 854 855 856 858 860 859 861 862 864 864 865 865 867 868 869 868 868 869 872 875 874 875 877 876 876 876 876 875 874 872 871 868 865 863 862 860 857 855
839 841 843 844 848 853 856 856 860 860 862 864 865 866 867 868 868 869 869 870 870 871 871 874 875 876 875 878 878 877 878 877 876 876 873 872 870 868 865 865 860 858 857
843 843 843 846 847 852 853 852 854 855 858 863 867 869 870 870 871 871 870 871 872 873 872 873 878 878 877 878 879 878 877 877 876 875 874 873 872 871 868 863 860 860 856
844 844 845 848 851 853 850 847 849 854 857 860 863 866 869 870 871 872 873 873 872 873 873 875 880 880 879 878 876 878 879 877 876 875 874 873 871 871 868 865 863 860 856
845 845 844 848 850 852 852 851 850 853 854 858 861 864 867 869 868 871 872 872 872 873 876 880 880 879 878 878 878 879 878 876 875 874 874 874 872 871 869 865 863 859 855
841 844 847 848 849 848 850 851 852 854 855 857 859 862 866 866 866 868 871 872 872 874 876 878 878 877 878 879 879 878 876 875 875 876 875 874 872 870 867 863 862 859 855
839 841 843 844 846 846 847 850 851 853 855 855 856 858 861 863 864 866 869 871 871 872 874 877 877 877 877 878 878 876 875 875 874 875 875 872 869 867 865 863 861 857 854
837 839 839 841 843 844 847 848 849 850 851 853 854 856 858 860 863 865 865 867 869 871 872 873 875 876 876 876 875 875 874 873 871 871 872 870 866 864 862 860 857 854 849
834 835 836 837 838 841 843 844 846 847 848 850 851 852 853 856 858 860 862 863 866 868 869 870 870 871 873 873 873 872 871 870 869 868 866 865 864 861 858 855 852 847 842
831 831 832 833 834 836 836 839 841 843 845 846 847 849 850 852 853 855 857 858 860 863 865 866 866 866 867 868 869 868 866 865 864 863 861 860 858 856 853 850 845 840 835
Wind_Speed
23 22 19 16 14 13 10 7 6 5 16 16 12 9 8 7 7 6 7 5 7 6 6 6 5 8 11 13 17 18 17 16 10 20 22 18 17 20 16 18 17 19 19
25 23 22 19 17 17 15 11 10 8 13 15 12 10 9 8 9 10 7 8 7 8 7 6 7 7 8 8 10 14 12 15 12 15 18 18 18 19 20 17 18 18 21
23 23 19 13 18 14 16 14 12 11 9 11 10 9 9 11 11 14 14 11 8 8 8 5 6 7 5 8 10 11 13 16 13 14 18 24 26 17 16 17 17 20 18
15 10 13 18 14 14 14 17 16 13 11 11 12 9 9 11 11 14 16 13 12 11 9 7 6 6 7 7 7 10 9 11 14 18 15 15 17 21 20 22 24 22 27
6 5 6 7 14 17 13 19 16 16 13 12 11 10 10 9 11 12 7 8 11 9 4 5 5 8 8 7 7 9 13 12 13 15 17 20 19 24 21 21 23 25 23
17 12 12 15 11 17 22 15 15 12 13 11 8 7 8 6 5 9 14 15 7 11 8 5 5 2 2 3 3 6 9 13 14 13 14 15 19 20 19 20 19 18 12
9 6 3 3 7 10 17 16 8 9 9 6 4 3 3 3 5 6 7 7 3 2 3 1 3 3 4 4 7 8 9 10 11 12 14 14 16 17 18 22 20 18 18
11 10 7 6 8 10 13 15 14 11 14 15 11 7 3 5 4 3 1 1 6 9 10 11 5 8 9 8 9 9 8 8 10 6 14 18 21 16 14 13 17 18 18
12 10 8 7 5 4 4 7 14 17 18 14 10 10 10 10 7 5 8 9 6 7 8 8 8 10 11 10 9 8 8 8 10 10 9 10 14 14 14 12 15 17 15
10 9 10 9 8 6 5 7 9 7 5 3 7 8 9 11 8 7 11 11 12 7 9 12 12 12 12 12 10 11 14 14 16 13 16 9 15 12 16 18 18 16 16
14 13 9 9 6 8 10 15 14 15 13 12 11 9 9 11 10 9 8 11 10 16 13 10 11 10 10 11 10 12 13 15 16 18 17 13 16 17 19 20 18 15 16
16 17 15 13 11 15 16 12 11 13 13 11 13 11 9 9 8 8 9 8 6 6 7 8 10 10 11 10 13 11 12 16 15 16 18 21 22 23 23 21 18 19 18
20 18 17 16 15 13 13 12 13 15 16 14 15 14 11 7 8 8 7 6 6 4 4 6 8 7 9 11 13 18 16 18 20 19 19 21 19 18 18 22 21 21 20
16 15 16 16 9 7 7 9 9 5 7 8 9 8 6 3 4 4 5 4 5 5 6 11 9 12 10 11 10 17 16 18 17 18 20 19 20 23 22 24 24 25 23
12 12 11 11 4 9 15 12 10 11 9 7 12 8 7 6 4 5 6 5 8 9 9 10 9 10 11 12 13 15 17 16 18 18 19 20 20 21 21 22 22 22 21
11 11 13 13 8 7 5 7 6 7 8 7 7 3 5 2 5 8 11 10 10 10 12 12 9 9 11 11 13 13 15 16 16 16 17 16 17 19 22 21 21 23 22
9 11 11 11 14 9 9 8 7 8 7 5 5 6 6 6 9 11 11 10 8 5 10 11 9 10 10 10 11 12 12 12 14 15 16 17 17 18 19 18 19 19 21
10 11 10 5 9 13 13 12 11 10 8 6 7 8 7 9 11 10 7 5 8 9 9 8 8 8 10 10 10 11 11 12 13 15 15 16 17 17 18 19 20 21 22
5 7 4 9 10 10 10 14 15 14 17 12 7 7 7 8 8 7 6 5 7 8 7 8 6 7 7 7 8 9 10 11 13 14 15 17 18 19 19 20 21 23 24
2 8 5 8 5 6 9 9 8 8 9 13 12 12 5 3 3 6 5 4 5 6 6 6 5 5 5 6 7 8 8 9 11 13 14 15 17 17 18 19 20 21 22
8 8 9 8 9 6 4 1 2 4 7 9 9 9 6 7 3 3 4 4 4 4 4 3 3 4 4 5 6 7 8 9 11 12 13 14 16 17 18 19 21 22 23
12 12 11 9 8 7 5 5 3 9 10 15 13 8 7 9 4 5 3 4 4 4 3 2 2 2 2 3 4 5 7 7 9 10 11 13 15 17 19 20 22 23 24
11 10 9 9 9 7 10 10 13 13 13 10 12 13 8 9 9 7 7 5 4 3 4 3 2 2 2 3 5 5 5 5 5 8 12 14 15 17 19 21 22 24 25
13 13 14 14 13 12 13 13 13 12 11 11 12 15 14 12 10 9 8 5 6 6 6 6 5 5 5 5 7 6 6 4 6 14 12 13 15 18 19 21 23 24 25
15 15 14 14 14 16 14 14 16 16 15 18 13 14 17 17 14 13 12 11 11 10 9 9 8 7 5 5 8 10 12 12 15 17 15 12 17 19 20 23 24 25 27
18 19 19 16 17 19 19 20 18 17 18 17 18 18 16 13 15 15 15 14 12 11 11 10 9 9 7 8 11 12 14 17 17 17 18 20 16 18 22 23 25 28 29
Wind_Direction
181 181 184 188 193 197 196 205 200 177 185 202 208 207 206 203 218 235 256 281 213 234 272 299 307 315 316 319 333 335 339 348 350 331 335 336 327 310 303 309 323 333 340
190 185 185 190 193 195 195 199 214 190 193 198 198 199 205 209 225 236 236 243 253 245 251 273 283 295 338 309 327 347 337 324 341 314 322 322 312 310 310 306 318 318 331
175 195 190 197 190 206 196 206 208 194 196 202 206 210 225 227 231 233 228 231 232 234 245 259 279 296 310 316 327 330 334 335 328 321 310 318 306 11 23 357 354 353 351
157 190 195 204 193 225 217 213 211 202 211 213 216 215 227 235 236 237 228 226 228 220 236 219 255 282 273 279 284 314 324 329 321 323 331 307 335 359 1 356 350 351 347
167 221 232 218 211 219 255 232 211 210 210 218 227 227 224 239 250 242 257 254 251 254 270 225 239 254 282 311 297 296 302 312 315 322 329 333 344 352 352 343 340 336 331
212 236 250 248 236 238 260 253 226 216 220 222 235 234 197 232 255 209 211 201 274 240 260 292 28 197 186 305 300 310 319 312 303 305 310 313 324 333 329 330 331 331 325
168 151 171 195 221 227 239 235 211 207 198 171 178 163 186 283 349 278 244 253 322 152 226 11 126 3 27 333 318 330 342 330 308 313 305 309 315 322 319 317 321 317 315
149 150 151 147 135 119 108 100 110 137 112 114 106 109 71 42 8 320 223 218 47 67 71 62 61 23 22 12 24 357 347 359 5 12 335 313 310 316 320 326 327 334 341
127 140 152 150 142 151 157 101 86 107 105 94 88 77 75 65 50 37 129 114 124 79 91 75 49 50 40 35 48 21 12 353 337 325 330 340 323 325 324 313 355 354 343
123 140 158 160 162 165 157 162 156 174 138 136 102 84 71 62 49 60 113 142 108 104 102 81 57 43 30 25 32 16 0 347 347 356 355 11 28 23 44 26 12 358 352
116 120 123 134 151 154 125 131 129 122 131 125 114 97 90 67 57 50 62 83 88 84 83 74 35 22 14 7 7 357 347 339 343 345 352 28 31 21 12 7 6 358 353
116 111 107 111 108 132 129 120 129 135 135 129 121 104 80 68 49 58 62 55 63 64 52 23 8 2 16 20 14 10 5 6 20 20 18 16 14 9 2 358 1 359 357
109 103 109 100 96 116 114 117 131 134 136 140 154 132 104 51 50 48 51 32 13 30 32 24 22 29 39 40 18 34 40 33 26 27 20 8 4 3 1 3 360 352 352
114 110 108 103 104 126 133 106 124 120 192 144 115 116 117 103 1 25 83 45 51 24 85 74 41 42 70 47 35 35 37 39 36 26 10 5 5 4 2 356 353 349 346
124 120 124 116 105 75 82 83 83 81 79 94 93 109 106 128 29 70 86 99 95 88 91 81 63 48 46 41 39 37 25 18 24 18 14 11 7 4 7 3 356 353 349
148 165 167 144 136 117 95 89 84 100 96 111 108 110 136 135 120 106 103 99 100 93 73 72 69 55 46 37 36 34 32 26 18 16 12 10 4 1 358 357 358 354 346
135 135 142 175 149 141 144 131 113 89 103 129 142 126 116 124 120 112 104 103 89 98 108 99 77 73 64 46 40 33 31 22 11 12 8 4 9 2 353 351 351 347 340
142 135 146 123 146 161 168 152 152 145 122 98 111 107 111 127 128 118 115 132 99 87 94 78 73 70 63 47 39 29 20 15 12 8 7 6 3 358 356 351 349 346 340
166 172 148 154 156 175 169 166 182 166 140 138 142 124 116 113 123 118 79 87 99 96 88 90 71 63 63 49 37 25 22 12 12 8 8 5 2 358 349 347 344 338 335
197 163 168 147 162 179 162 164 148 152 154 163 186 166 159 179 190 132 104 93 91 88 80 86 79 67 63 48 34 19 9 11 11 9 4 357 354 348 341 337 332 329 328
196 184 160 160 167 191 193 247 88 158 177 164 155 176 196 213 183 146 134 118 99 92 102 92 81 61 50 39 25 11 11 11 10 6 358 349 344 339 334 331 327 325 323
193 184 195 199 192 196 199 225 224 215 203 188 163 167 185 205 210 169 174 174 147 145 140 138 109 57 30 21 6 3 6 4 2 356 344 337 333 329 328 327 324 322 321
204 197 201 213 232 207 183 221 224 208 222 221 186 185 191 201 227 184 193 210 192 195 206 232 247 275 300 307 312 315 324 320 324 337 327 322 319 318 319 315 312 311 310
220 218 208 202 218 229 215 222 241 237 232 231 223 181 186 201 202 213 197 219 215 223 226 233 244 266 277 282 300 302 296 268 280 319 310 304 308 309 307 310 310 307 307
221 220 227 230 219 218 237 223 224 237 231 233 253 219 212 211 211 216 212 211 218 222 232 239 243 249 264 285 295 283 278 287 303 312 315 305 301 307 308 306 300 300 300
230 242 240 233 233 230 219 225 229 230 240 241 222 234 251 235 218 218 219 217 217 227 234 237 251 241 260 276 269 260 277 294 309 316 313 312 307 303 299 298 301 301 298